When you browse on this site, cookies collect data to enhance your experience and personalize the content and advertising you see.
Visit our Privacy Policy to learn more. By continuing to use the site, you agree to this use of cookies and data.
  • In Belgien
  • Länderverzeichnis
  • Für 7 Tage
  • Wassertemperatur
  • Satellitenkarten
  • Wetterkarte
  • Widgets
  • user-avatar
    Anmelden

    Stündliche Wetter Molepolole

    Heute, 17 Juni, Montag

    Zeit Temperatur Niederschläge Wind Luftdruck Luftfeuchtigkeit
    00:00 +10°C° 0 mm 1 m/S 668 mmHg 49%
    01:00 +9°C° 0 mm 1 m/S 668 mmHg 51%
    02:00 +9°C° 0 mm 1 m/S 669 mmHg 55%
    03:00 +8°C° 0 mm 1 m/S 669 mmHg 55%
    04:00 +8°C° 0 mm 1 m/S 668 mmHg 55%
    05:00 +6°C° 0 mm 2 m/S 668 mmHg 55%
    06:00 +7°C° 0 mm 2 m/S 669 mmHg 52%
    07:00 +9°C° 0 mm 1 m/S 670 mmHg 49%
    08:00 +9°C° 0 mm 1 m/S 671 mmHg 46%
    09:00 +12°C° 0 mm 2 m/S 671 mmHg 39%
    10:00 +16°C° 0 mm 3 m/S 672 mmHg 33%
    11:00 +19°C° 0 mm 4 m/S 672 mmHg 26%
    12:00 +20°C° 0 mm 3 m/S 672 mmHg 23%
    13:00 +21°C° 0 mm 3 m/S 671 mmHg 20%
    14:00 +22°C° 0 mm 3 m/S 671 mmHg 17%
    15:00 +21°C° 0 mm 2 m/S 670 mmHg 18%
    16:00 +20°C° 0 mm 2 m/S 670 mmHg 19%
    17:00 +20°C° 0 mm 2 m/S 670 mmHg 19%
    18:00 +17°C° 0 mm 2 m/S 669 mmHg 23%
    19:00 +15°C° 0 mm 2 m/S 669 mmHg 27%
    20:00 +13°C° 0 mm 2 m/S 669 mmHg 31%
    21:00 +12°C° 0 mm 2 m/S 669 mmHg 34%
    22:00 +11°C° 0 mm 1 m/S 669 mmHg 38%
    23:00 +10°C° 0 mm 1 m/S 669 mmHg 41%

    Morgen, 18 Juni, Dienstag

    Zeit Temperatur Niederschläge Wind Luftdruck Luftfeuchtigkeit
    00:00 +10°C° 0 mm 1 m/S 669 mmHg 43%
    01:00 +9°C° 0 mm 1 m/S 669 mmHg 45%
    02:00 +9°C° 0 mm 1 m/S 668 mmHg 47%
    03:00 +9°C° 0 mm 1 m/S 668 mmHg 47%
    04:00 +8°C° 0 mm 1 m/S 668 mmHg 48%
    05:00 +8°C° 0 mm 1 m/S 668 mmHg 49%
    06:00 +9°C° 0 mm 1 m/S 669 mmHg 44%
    07:00 +10°C° 0 mm 1 m/S 669 mmHg 39%
    08:00 +11°C° 0 mm 1 m/S 670 mmHg 35%
    09:00 +14°C° 0 mm 2 m/S 671 mmHg 29%
    10:00 +17°C° 0 mm 2 m/S 671 mmHg 23%
    11:00 +20°C° 0 mm 3 m/S 672 mmHg 17%
    12:00 +21°C° 0 mm 3 m/S 672 mmHg 16%
    13:00 +22°C° 0 mm 3 m/S 671 mmHg 14%
    14:00 +24°C° 0 mm 3 m/S 671 mmHg 12%
    15:00 +23°C° 0 mm 2 m/S 670 mmHg 13%
    16:00 +21°C° 0 mm 2 m/S 670 mmHg 14%
    17:00 +20°C° 0 mm 2 m/S 670 mmHg 15%
    18:00 +18°C° 0 mm 2 m/S 669 mmHg 18%
    19:00 +15°C° 0 mm 1 m/S 669 mmHg 22%
    20:00 +13°C° 0 mm 1 m/S 669 mmHg 25%
    21:00 +12°C° 0 mm 1 m/S 669 mmHg 29%
    22:00 +11°C° 0 mm 1 m/S 669 mmHg 32%
    23:00 +10°C° 0 mm 1 m/S 669 mmHg 35%

    übermorgen, 19 Juni, Mittwoch

    Zeit Temperatur Niederschläge Wind Luftdruck Luftfeuchtigkeit
    00:00 +10°C° 0 mm 1 m/S 669 mmHg 33%
    01:00 +9°C° 0 mm 2 m/S 669 mmHg 31%
    02:00 +9°C° 0 mm 2 m/S 669 mmHg 29%
    03:00 +8°C° 0 mm 2 m/S 669 mmHg 31%
    04:00 +7°C° 0 mm 2 m/S 669 mmHg 33%
    05:00 +6°C° 0 mm 2 m/S 669 mmHg 35%
    06:00 +7°C° 0 mm 2 m/S 670 mmHg 35%
    07:00 +8°C° 0 mm 2 m/S 670 mmHg 35%
    08:00 +8°C° 0 mm 2 m/S 671 mmHg 36%
    09:00 +11°C° 0 mm 3 m/S 672 mmHg 32%
    10:00 +14°C° 0 mm 4 m/S 672 mmHg 27%
    11:00 +17°C° 0 mm 5 m/S 673 mmHg 23%
    12:00 +20°C° 0 mm 5 m/S 673 mmHg 21%
    13:00 +21°C° 0 mm 5 m/S 672 mmHg 18%
    14:00 +22°C° 0 mm 5 m/S 672 mmHg 15%
    15:00 +21°C° 0 mm 4 m/S 672 mmHg 17%
    16:00 +20°C° 0 mm 4 m/S 671 mmHg 18%
    17:00 +20°C° 0 mm 3 m/S 671 mmHg 19%
    18:00 +17°C° 0 mm 2 m/S 670 mmHg 24%
    19:00 +14°C° 0 mm 2 m/S 670 mmHg 30%
    20:00 +11°C° 0 mm 1 m/S 670 mmHg 35%
    21:00 +11°C° 0 mm 1 m/S 670 mmHg 38%
    22:00 +10°C° 0 mm 1 m/S 670 mmHg 42%
    23:00 +8°C° 0 mm 0 m/S 670 mmHg 45%

    20 Juni, Donnerstag

    Zeit Temperatur Niederschläge Wind Luftdruck Luftfeuchtigkeit
    00:00 +8°C° 0 mm 0 m/S 670 mmHg 46%
    01:00 +8°C° 0 mm 1 m/S 669 mmHg 47%
    02:00 +8°C° 0 mm 1 m/S 669 mmHg 48%
    03:00 +7°C° 0 mm 1 m/S 669 mmHg 46%
    04:00 +7°C° 0 mm 1 m/S 669 mmHg 45%
    05:00 +7°C° 0 mm 1 m/S 669 mmHg 44%
    06:00 +8°C° 0 mm 1 m/S 669 mmHg 39%
    07:00 +9°C° 0 mm 1 m/S 670 mmHg 35%
    08:00 +9°C° 0 mm 1 m/S 671 mmHg 31%
    09:00 +13°C° 0 mm 2 m/S 671 mmHg 28%
    10:00 +16°C° 0 mm 2 m/S 672 mmHg 24%
    11:00 +19°C° 0 mm 2 m/S 673 mmHg 21%
    12:00 +20°C° 0 mm 2 m/S 672 mmHg 19%
    13:00 +21°C° 0 mm 2 m/S 672 mmHg 17%
    14:00 +22°C° 0 mm 3 m/S 671 mmHg 14%
    15:00 +21°C° 0 mm 2 m/S 671 mmHg 15%
    16:00 +21°C° 0 mm 2 m/S 670 mmHg 16%
    17:00 +20°C° 0 mm 2 m/S 670 mmHg 17%
    18:00 +17°C° 0 mm 2 m/S 669 mmHg 23%
    19:00 +14°C° 0 mm 1 m/S 669 mmHg 30%
    20:00 +12°C° 0 mm 1 m/S 669 mmHg 36%
    21:00 +11°C° 0 mm 1 m/S 669 mmHg 40%
    22:00 +10°C° 0 mm 1 m/S 668 mmHg 44%
    23:00 +8°C° 0 mm 0 m/S 668 mmHg 49%

    21 Juni, Freitag

    Zeit Temperatur Niederschläge Wind Luftdruck Luftfeuchtigkeit
    00:00 +8°C° 0 mm 0 m/S 668 mmHg 49%
    01:00 +7°C° 0 mm 0 m/S 668 mmHg 49%
    02:00 +7°C° 0 mm 0 m/S 668 mmHg 49%
    03:00 +7°C° 0 mm 0 m/S 668 mmHg 48%
    04:00 +6°C° 0 mm 0 m/S 668 mmHg 48%
    05:00 +7°C° 0 mm 1 m/S 668 mmHg 48%
    06:00 +8°C° 0 mm 1 m/S 669 mmHg 43%
    07:00 +9°C° 0 mm 1 m/S 669 mmHg 39%
    08:00 +9°C° 0 mm 1 m/S 670 mmHg 35%
    09:00 +13°C° 0 mm 1 m/S 671 mmHg 29%
    10:00 +16°C° 0 mm 1 m/S 671 mmHg 23%
    11:00 +20°C° 0 mm 1 m/S 672 mmHg 17%
    12:00 +22°C° 0 mm 1 m/S 672 mmHg 15%
    13:00 +23°C° 0 mm 1 m/S 671 mmHg 12%
    14:00 +24°C° 0 mm 1 m/S 671 mmHg 10%
    15:00 +23°C° 0 mm 1 m/S 670 mmHg 11%
    16:00 +22°C° 0 mm 1 m/S 669 mmHg 12%
    17:00 +21°C° 0 mm 1 m/S 669 mmHg 13%
    18:00 +18°C° 0 mm 1 m/S 668 mmHg 20%
    19:00 +14°C° 0 mm 1 m/S 667 mmHg 26%
    20:00 +11°C° 0 mm 1 m/S 667 mmHg 33%
    21:00 +11°C° 0 mm 1 m/S 667 mmHg 31%
    22:00 +11°C° 0 mm 1 m/S 667 mmHg 28%
    23:00 +10°C° 0 mm 2 m/S 667 mmHg 26%

    22 Juni, Samstag

    Zeit Temperatur Niederschläge Wind Luftdruck Luftfeuchtigkeit
    00:00 +9°C° 0 mm 2 m/S 667 mmHg 26%
    01:00 +9°C° 0 mm 2 m/S 667 mmHg 27%
    02:00 +9°C° 0 mm 2 m/S 667 mmHg 27%
    03:00 +8°C° 0 mm 2 m/S 667 mmHg 29%
    04:00 +8°C° 0 mm 2 m/S 667 mmHg 31%
    05:00 +8°C° 0 mm 2 m/S 667 mmHg 32%
    06:00 +8°C° 0 mm 2 m/S 667 mmHg 31%
    07:00 +9°C° 0 mm 2 m/S 668 mmHg 30%
    08:00 +10°C° 0 mm 2 m/S 669 mmHg 28%
    09:00 +13°C° 0 mm 3 m/S 669 mmHg 24%
    10:00 +17°C° 0 mm 3 m/S 670 mmHg 20%
    11:00 +20°C° 0 mm 4 m/S 671 mmHg 16%
    12:00 +21°C° 0 mm 4 m/S 671 mmHg 14%
    13:00 +22°C° 0 mm 5 m/S 670 mmHg 13%
    14:00 +23°C° 0 mm 5 m/S 670 mmHg 11%
    15:00 +22°C° 0 mm 5 m/S 670 mmHg 16%
    16:00 +21°C° 0 mm 5 m/S 669 mmHg 21%
    17:00 +20°C° 0 mm 4 m/S 669 mmHg 25%
    18:00 +18°C° 0 mm 4 m/S 669 mmHg 33%
    19:00 +15°C° 0 mm 4 m/S 669 mmHg 41%
    20:00 +13°C° 0 mm 4 m/S 669 mmHg 49%
    21:00 +12°C° 0 mm 5 m/S 670 mmHg 57%
    22:00 +10°C° 0 mm 5 m/S 670 mmHg 66%
    23:00 +10°C° 0 mm 5 m/S 670 mmHg 74%
    Mehr zeigen